Radiation Dose at Monitoring Post of Fukushima Daini Nuclear Power Station
Date,Time,MP-1(microSv/h),MP-2(microSv/h),MP-3(microSv/h),MP-4(microSv/h),MP-5(microSv/h),MP-6(microSv/h),MP-7(microSv/h),Wind Direction,Wind Velocity(m/s),Rain
2020/05/11,00:00,0.178,0.162,0.270,0.246,0.256,0.140,0.084,west,4.5,No
2020/05/11,00:10,0.176,0.162,0.273,0.248,0.259,0.140,0.085,west-northwest,4.3,No
2020/05/11,00:20,0.178,0.163,0.270,0.247,0.258,0.140,0.084,west,2.4,No
2020/05/11,00:30,0.177,0.161,0.271,0.246,0.258,0.139,0.085,west-northwest,3.8,No
2020/05/11,00:40,0.176,0.163,0.274,0.248,0.260,0.140,0.085,west,4.2,No
2020/05/11,00:50,0.178,0.162,0.271,0.246,0.259,0.140,0.085,west-northwest,3.2,No
2020/05/11,01:00,0.177,0.162,0.273,0.247,0.257,0.140,0.084,west-northwest,3.4,Yes
2020/05/11,01:10,0.177,0.163,0.272,0.248,0.261,0.141,0.085,west,3.7,Yes
2020/05/11,01:20,0.180,0.165,0.274,0.250,0.261,0.143,0.088,northwest,3.0,Yes
2020/05/11,01:30,0.182,0.167,0.277,0.253,0.265,0.146,0.090,west-northwest,2.9,Yes
2020/05/11,01:40,0.183,0.168,0.277,0.251,0.265,0.146,0.090,west-northwest,4.4,Yes
2020/05/11,01:50,0.181,0.168,0.279,0.253,0.264,0.147,0.090,west-northwest,5.4,Yes
2020/05/11,02:00,0.183,0.167,0.275,0.250,0.263,0.145,0.091,west-northwest,6.7,No
2020/05/11,02:10,0.181,0.167,0.277,0.252,0.262,0.144,0.088,west-northwest,4.2,No
2020/05/11,02:20,0.181,0.165,0.274,0.249,0.263,0.143,0.088,west-northwest,2.8,No
2020/05/11,02:30,0.179,0.165,0.275,0.250,0.260,0.143,0.087,west-northwest,3.0,No
2020/05/11,02:40,0.180,0.163,0.272,0.248,0.259,0.142,0.087,west-northwest,5.0,No
2020/05/11,02:50,0.180,0.164,0.275,0.249,0.259,0.143,0.086,west-northwest,4.6,No
2020/05/11,03:00,0.179,0.164,0.270,0.247,0.258,0.141,0.086,northwest,4.8,No
2020/05/11,03:10,0.180,0.164,0.273,0.247,0.259,0.141,0.086,west-northwest,6.1,No
2020/05/11,03:20,0.177,0.163,0.271,0.247,0.256,0.141,0.085,west-northwest,4.6,No
2020/05/11,03:30,0.179,0.164,0.272,0.246,0.260,0.141,0.086,west-northwest,4.5,No
2020/05/11,03:40,0.178,0.163,0.272,0.248,0.256,0.141,0.085,west-northwest,7.6,No
2020/05/11,03:50,0.178,0.162,0.271,0.245,0.257,0.140,0.085,west-northwest,6.9,No
2020/05/11,04:00,0.178,0.162,0.272,0.247,0.259,0.141,0.084,northwest,7.6,No
2020/05/11,04:10,0.177,0.162,0.272,0.245,0.257,0.141,0.085,north-northwest,4.5,No
2020/05/11,04:20,0.178,0.162,0.273,0.247,0.259,0.141,0.085,north-northwest,2.7,No
2020/05/11,04:30,0.176,0.161,0.272,0.247,0.257,0.139,0.085,north-northeast,2.6,No
2020/05/11,04:40,0.178,0.162,0.272,0.247,0.260,0.141,0.084,west-northwest,1.7,No
2020/05/11,04:50,0.177,0.162,0.272,0.247,0.257,0.139,0.085,north-northeast,1.7,No
2020/05/11,05:00,0.179,0.163,0.271,0.247,0.259,0.140,0.084,north-northeast,3.7,No
2020/05/11,05:10,0.178,0.161,0.272,0.248,0.259,0.139,0.085,north,3.2,No
2020/05/11,05:20,0.177,0.163,0.272,0.246,0.257,0.140,0.085,north-northwest,2.4,No
2020/05/11,05:30,0.179,0.162,0.272,0.247,0.258,0.140,0.085,north-northwest,3.7,No
2020/05/11,05:40,0.177,0.163,0.271,0.244,0.257,0.140,0.085,northwest,5.1,No
2020/05/11,05:50,0.179,0.162,0.274,0.247,0.258,0.140,0.084,north-northwest,5.7,No
2020/05/11,06:00,0.177,0.163,0.270,0.246,0.257,0.140,0.084,north-northwest,4.6,No
2020/05/11,06:10,0.178,0.163,0.272,0.247,0.259,0.141,0.085,north,5.2,No
2020/05/11,06:20,0.178,0.163,0.271,0.246,0.258,0.139,0.086,northwest,3.8,No
2020/05/11,06:30,0.178,0.164,0.273,0.247,0.256,0.141,0.084,northwest,4.2,No
2020/05/11,06:40,0.177,0.161,0.272,0.248,0.259,0.140,0.083,west-northwest,7.2,No
2020/05/11,06:50,0.177,0.161,0.272,0.245,0.256,0.140,0.084,northwest,3.8,No
2020/05/11,07:00,0.179,0.162,0.272,0.247,0.259,0.140,0.085,northwest,8.2,No
2020/05/11,07:10,0.178,0.162,0.272,0.246,0.259,0.140,0.085,northwest,7.4,No
2020/05/11,07:20,0.179,0.162,0.274,0.246,0.257,0.141,0.085,west-northwest,6.3,No
2020/05/11,07:30,0.178,0.163,0.271,0.247,0.260,0.141,0.085,northwest,5.3,No
2020/05/11,07:40,0.177,0.162,0.270,0.246,0.256,0.141,0.084,northwest,5.7,No
2020/05/11,07:50,0.177,0.162,0.275,0.246,0.258,0.140,0.084,northwest,6.5,No
2020/05/11,08:00,0.178,0.163,0.272,0.248,0.260,0.139,0.085,northwest,4.8,No
2020/05/11,08:10,0.178,0.163,0.270,0.246,0.257,0.140,0.085,west-northwest,4.7,No
2020/05/11,08:20,0.175,0.161,0.270,0.244,0.256,0.141,0.085,southeast,1.6,No
2020/05/11,08:30,0.178,0.161,0.270,0.244,0.258,0.140,0.085,west,1.3,No
2020/05/11,08:40,0.178,0.161,0.269,0.244,0.259,0.140,0.084,east,4.1,No
2020/05/11,08:50,0.177,0.161,0.270,0.246,0.257,0.140,0.084,west,5.8,No
2020/05/11,09:00,0.176,0.160,0.271,0.248,0.255,0.142,0.085,west-northwest,5.5,No
2020/05/11,09:10,0.176,0.161,0.270,0.247,0.256,0.140,0.086,west,7.6,No
2020/05/11,09:20,0.177,0.162,0.270,0.247,0.261,0.140,0.086,west-northwest,4.5,No
2020/05/11,09:30,0.179,0.161,0.271,0.246,0.260,0.139,0.085,northeast,3.1,No
2020/05/11,09:40,0.179,0.162,0.271,0.246,0.259,0.140,0.085,northeast,1.7,No
2020/05/11,09:50,0.179,0.161,0.272,0.247,0.258,0.141,0.085,north-northeast,2.1,No
2020/05/11,10:00,0.177,0.162,0.272,0.246,0.257,0.141,0.085,west,5.7,No
2020/05/11,10:10,0.177,0.162,0.273,0.247,0.258,0.141,0.086,north-northwest,2.2,No
2020/05/11,10:20,0.178,0.162,0.274,0.247,0.257,0.142,0.085,north-northeast,1.6,No
2020/05/11,10:30,0.177,0.162,0.274,0.247,0.256,0.140,0.084,north,2.5,No
2020/05/11,10:40,0.177,0.163,0.273,0.247,0.259,0.141,0.084,northwest,3.9,No
2020/05/11,10:50,0.177,0.164,0.274,0.247,0.258,0.141,0.086,northwest,3.2,No
2020/05/11,11:00,0.177,0.163,0.273,0.248,0.259,0.141,0.085,west-northwest,1.1,No
2020/05/11,11:10,0.178,0.163,0.272,0.248,0.258,0.140,0.085,west-northwest,0.9,No
2020/05/11,11:20,0.178,0.163,0.274,0.247,0.258,0.141,0.085,north,1.3,No
2020/05/11,11:30,0.177,0.162,0.274,0.248,0.259,0.141,0.085,west-northwest,4.3,No
2020/05/11,11:40,0.178,0.163,0.273,0.249,0.259,0.141,0.085,west-northwest,5.4,No
2020/05/11,11:50,0.178,0.163,0.274,0.249,0.259,0.141,0.085,west,6.2,No
2020/05/11,12:00,0.178,0.163,0.274,0.248,0.258,0.141,0.086,northwest,3.1,No
2020/05/11,12:10,0.178,0.163,0.273,0.250,0.260,0.142,0.085,northwest,4.2,No
2020/05/11,12:20,0.179,0.164,0.276,0.250,0.259,0.142,0.086,west,7.5,No
2020/05/11,12:30,0.179,0.162,0.276,0.249,0.259,0.141,0.085,west-northwest,4.6,No
2020/05/11,12:40,0.178,0.165,0.275,0.250,0.260,0.142,0.086,northwest,4.4,No
2020/05/11,12:50,0.178,0.163,0.276,0.249,0.261,0.141,0.086,west-northwest,5.9,No
2020/05/11,13:00,0.179,0.164,0.275,0.249,0.260,0.141,0.085,west,6.1,No
2020/05/11,13:10,0.178,0.163,0.275,0.250,0.259,0.142,0.085,west,6.9,No
2020/05/11,13:20,0.178,0.164,0.276,0.250,0.261,0.142,0.086,west-northwest,8.6,No
2020/05/11,13:30,0.178,0.165,0.275,0.250,0.261,0.142,0.086,west-northwest,5.7,No
2020/05/11,13:40,0.178,0.164,0.276,0.250,0.259,0.141,0.085,south,6.5,No
2020/05/11,13:50,0.178,0.162,0.274,0.250,0.259,0.142,0.085,south,8.5,No
2020/05/11,14:00,0.178,0.163,0.275,0.249,0.260,0.141,0.085,south,8.1,No
2020/05/11,14:10,0.179,0.163,0.277,0.248,0.260,0.141,0.085,south-southeast,8.6,No
2020/05/11,14:20,0.179,0.162,0.275,0.248,0.259,0.141,0.084,south-southeast,8.1,No
2020/05/11,14:30,0.177,0.161,0.276,0.247,0.257,0.140,0.085,south-southeast,10.6,No
2020/05/11,14:40,0.178,0.163,0.275,0.251,0.257,0.141,0.086,south-southeast,11.5,No
2020/05/11,14:50,0.177,0.164,0.274,0.253,0.258,0.141,0.085,south-southeast,10.4,No
2020/05/11,15:00,0.178,0.164,0.276,0.251,0.258,0.141,0.085,south-southeast,10.6,No
2020/05/11,15:10,0.180,0.163,0.278,0.250,0.257,0.142,0.086,south-southeast,11.5,No
2020/05/11,15:20,0.180,0.162,0.278,0.249,0.258,0.142,0.085,south,13.7,No
2020/05/11,15:30,0.179,0.164,0.274,0.253,0.262,0.141,0.085,south-southeast,12.0,No
2020/05/11,15:40,0.179,0.164,0.275,0.252,0.263,0.141,0.085,south-southeast,12.5,No
2020/05/11,15:50,0.179,0.163,0.279,0.251,0.260,0.142,0.085,south,11.7,No
2020/05/11,16:00,0.178,0.164,0.276,0.253,0.259,0.142,0.086,south-southeast,11.4,No
2020/05/11,16:10,0.180,0.163,0.278,0.250,0.259,0.140,0.086,south-southeast,11.5,No
2020/05/11,16:20,0.179,0.165,0.277,0.251,0.262,0.140,0.085,south-southeast,12.5,No
2020/05/11,16:30,0.178,0.165,0.276,0.252,0.261,0.142,0.086,south-southeast,10.6,No
2020/05/11,16:40,0.178,0.164,0.279,0.252,0.259,0.141,0.085,south-southeast,9.2,No
2020/05/11,16:50,0.179,0.165,0.277,0.253,0.257,0.141,0.087,south-southeast,10.0,No
2020/05/11,17:00,0.179,0.163,0.278,0.250,0.262,0.143,0.086,south-southeast,10.3,No
2020/05/11,17:10,0.179,0.165,0.278,0.252,0.262,0.142,0.086,south-southeast,10.0,No
2020/05/11,17:20,0.180,0.164,0.276,0.250,0.260,0.142,0.086,south-southeast,10.6,No
2020/05/11,17:30,0.179,0.163,0.278,0.252,0.261,0.140,0.086,south-southeast,9.2,No
2020/05/11,17:40,0.181,0.165,0.277,0.253,0.263,0.141,0.085,south-southeast,8.8,No
2020/05/11,17:50,0.180,0.164,0.278,0.251,0.259,0.142,0.085,south,8.3,No
2020/05/11,18:00,0.179,0.165,0.279,0.252,0.263,0.141,0.087,south,6.9,No
2020/05/11,18:10,0.180,0.164,0.277,0.251,0.261,0.143,0.086,south,7.8,No
2020/05/11,18:20,0.178,0.164,0.279,0.253,0.259,0.141,0.086,south-southwest,6.1,No
2020/05/11,18:30,0.181,0.164,0.276,0.252,0.264,0.142,0.085,south,6.8,No
2020/05/11,18:40,0.179,0.164,0.279,0.253,0.262,0.141,0.086,south,5.5,No
2020/05/11,18:50,0.181,0.164,0.276,0.251,0.263,0.142,0.086,south-southwest,4.5,No
2020/05/11,19:00,0.180,0.165,0.278,0.253,0.260,0.142,0.086,southwest,4.5,No
2020/05/11,19:10,0.179,0.164,0.275,0.251,0.263,0.141,0.086,west-southwest,4.2,No
2020/05/11,19:20,0.181,0.165,0.279,0.252,0.261,0.141,0.086,southwest,3.2,No
2020/05/11,19:30,0.179,0.164,0.277,0.250,0.262,0.141,0.087,southwest,3.2,No
2020/05/11,19:40,0.180,0.165,0.279,0.253,0.261,0.142,0.086,southwest,3.4,No
2020/05/11,19:50,0.180,0.164,0.276,0.251,0.261,0.143,0.086,south-southwest,3.1,No
2020/05/11,20:00,0.180,0.164,0.279,0.252,0.262,0.142,0.086,south-southwest,4.9,No
2020/05/11,20:10,0.178,0.164,0.277,0.250,0.260,0.142,0.086,west-southwest,3.8,No
2020/05/11,20:20,0.181,0.164,0.279,0.253,0.262,0.143,0.086,west-southwest,3.7,No
2020/05/11,20:30,0.180,0.164,0.277,0.252,0.260,0.142,0.084,west-southwest,3.5,No
2020/05/11,20:40,0.181,0.164,0.278,0.253,0.262,0.141,0.086,west,5.3,No
2020/05/11,20:50,0.180,0.166,0.279,0.251,0.259,0.141,0.086,west-northwest,5.1,No
2020/05/11,21:00,0.181,0.164,0.278,0.253,0.263,0.143,0.086,west-northwest,3.4,No
2020/05/11,21:10,0.181,0.165,0.278,0.250,0.258,0.142,0.086,west,0.9,No
2020/05/11,21:20,0.179,0.165,0.279,0.252,0.262,0.142,0.086,south,0.8,No
2020/05/11,21:30,0.180,0.165,0.277,0.251,0.260,0.142,0.085,southwest,1.0,No
2020/05/11,21:40,0.180,0.164,0.278,0.252,0.264,0.142,0.087,south-southwest,1.9,No
2020/05/11,21:50,0.181,0.164,0.277,0.252,0.260,0.142,0.086,south-southwest,3.2,No
2020/05/11,22:00,0.180,0.165,0.279,0.253,0.262,0.142,0.086,south-southwest,3.2,No
2020/05/11,22:10,0.181,0.165,0.277,0.251,0.261,0.142,0.086,south-southwest,3.2,No
2020/05/11,22:20,0.180,0.165,0.279,0.253,0.261,0.142,0.087,southwest,1.7,No
2020/05/11,22:30,0.180,0.164,0.277,0.251,0.261,0.142,0.087,southwest,1.4,No
2020/05/11,22:40,0.179,0.164,0.280,0.252,0.260,0.141,0.087,west-northwest,0.6,No
2020/05/11,22:50,0.180,0.165,0.277,0.250,0.261,0.142,0.086,northwest,1.4,No
2020/05/11,23:00,0.179,0.165,0.278,0.252,0.260,0.142,0.086,west-northwest,2.6,No
2020/05/11,23:10,0.181,0.165,0.277,0.252,0.261,0.142,0.087,west-northwest,2.9,No
2020/05/11,23:20,0.180,0.164,0.278,0.252,0.260,0.142,0.087,northwest,1.6,No
2020/05/11,23:30,0.181,0.166,0.278,0.252,0.262,0.142,0.086,northwest,0.6,No
2020/05/11,23:40,0.180,0.165,0.279,0.252,0.261,0.141,0.086,-,CALM,No
2020/05/11,23:50,0.180,0.164,0.279,0.253,0.262,0.141,0.086,-,CALM,No
